Weather History for Sioux Falls, SD

Change the Weather History Date:

Friday, February 1, 2013

  Actual Average Record
Temperature  
Mean Temperature 7 °F 18 °F  
Max Temperature 22 °F 28 °F 54 °F (1987)
Min Temperature -8 °F 8 °F -32 °F (1917)
Degree Days  
Heating Degree Days 58 47  
Month to date heating degree days 58 47  
Since 1 July heating degree days 4464 4679  
Cooling Degree Days 0 0  
Month to date cooling degree days 0 0  
Year to date cooling degree days 0 0  
Moisture  
Dew Point 1 °F    
Average Humidity 73    
Maximum Humidity 83    
Minimum Humidity 62    
Precipitation  
Precipitation T in 0.02 in 0.52 in (1961)
Month to date precipitation T 0.02  
Year to date precipitation 0.41 0.58  
Snow  
Snow T in 0.30 in 5.20 in (1961)
Month to date snowfall T 0.3  
Since 1 July snowfall 15.9 24.9  
Snow Depth T in    
Sea Level Pressure  
Sea Level Pressure 30.20 in    
Wind  
Wind Speed 8 mph (SSW)    
Max Wind Speed 17 mph    
Max Gust Speed 21 mph    
Visibility 10 miles    
Events Snow    
T = Trace of Precipitation, MM = Missing Value Source: NWS Daily Summary

Daily Weather History Graph

Daily Weather History Graph

Search for Another Location

Airport:

Trip Planner

Search our weather history database for the weather conditions in past years. The results will help you decide how hot, cold, wet, or windy it might be!

Date:

Astronomy

Feb. 01, 2013 Rise Set
Actual Time 7:43 AM CST 5:38 PM CST
Civil Twilight 7:12 AM CST 6:09 PM CST
Nautical Twilight 6:38 AM CST 6:43 PM CST
Astronomical Twilight 6:04 AM CST 7:17 PM CST
Moon No Moon Rise 10:04 AM CST (2/1)
Length of Visible Light 10h 56m
Length of Day
9h 55m
Waning Gibbous, 70% of the Moon is Illuminated
Feb 1
Waning Gibbous
Feb 3
Last Quarter
Feb 10
New
Feb 17
First Quarter
Feb 25
Full

Hourly Weather History & Observations

Time (CST) Temp. Windchill Dew Point Humidity Pressure Visibility Wind Dir Wind Speed Gust Speed Precip Events Conditions
12:56 AM -7.1 °F -18.1 °F -14.1 °F 72% 30.44 in 10.0 mi West 4.6 mph - N/A   Clear
1:56 AM -7.1 °F -18.1 °F -13.0 °F 75% 30.43 in 10.0 mi SW 4.6 mph - N/A   Clear
2:56 AM -7.1 °F - -13.0 °F 75% 30.42 in 10.0 mi Calm Calm - N/A   Clear
3:56 AM -8.0 °F - -13.0 °F 79% 30.40 in 10.0 mi Calm Calm - N/A   Clear
4:56 AM -7.1 °F -15.9 °F -11.9 °F 79% 30.38 in 10.0 mi South 3.5 mph - N/A   Clear
5:56 AM -7.6 °F - -11.2 °F 84% 30.23 in 10.0 mi Calm Calm - N/A   Clear
6:56 AM -4.0 °F -12.4 °F -9.0 °F 79% 30.34 in 10.0 mi South 3.5 mph - N/A   Mostly Cloudy
7:56 AM -2.0 °F -17.7 °F -9.0 °F 72% 30.33 in 10.0 mi South 9.2 mph - N/A   Mostly Cloudy
8:56 AM -0.0 °F -14.2 °F -7.1 °F 72% 30.30 in 10.0 mi SSE 8.1 mph - N/A   Mostly Cloudy
9:56 AM 1.9 °F -14.7 °F -5.1 °F 72% 30.28 in 10.0 mi South 11.5 mph - N/A   Mostly Cloudy
10:56 AM 6.1 °F -10.9 °F -2.9 °F 67% 30.24 in 10.0 mi South 13.8 mph - N/A   Mostly Cloudy
11:56 AM 9.0 °F -6.6 °F -0.0 °F 67% 30.19 in 10.0 mi South 12.7 mph - N/A   Overcast
12:56 PM 10.9 °F -4.7 °F 1.9 °F 67% 30.15 in 9.0 mi South 13.8 mph - 0.00 in Snow Light Snow
1:56 PM 14.0 °F 1.2 °F 5.0 °F 67% 30.11 in 10.0 mi South 10.4 mph - 0.00 in   Overcast
2:56 PM 16.0 °F 0.6 °F 7.0 °F 68% 30.08 in 10.0 mi South 16.1 mph - 0.00 in   Overcast
3:56 PM 19.0 °F 6.8 °F 9.0 °F 65% 30.06 in 10.0 mi SSW 11.5 mph 20.7 mph N/A   Mostly Cloudy
4:56 PM 19.9 °F 10.1 °F 10.9 °F 68% 30.04 in 10.0 mi South 8.1 mph - N/A   Partly Cloudy
5:56 PM 19.0 °F - 10.9 °F 71% 30.04 in 10.0 mi Calm Calm - N/A   Clear
6:56 PM 16.0 °F 8.8 °F 10.9 °F 81% 30.05 in 10.0 mi NNE 4.6 mph - N/A   Mostly Cloudy
7:56 PM 18.0 °F 11.1 °F 12.0 °F 78% 30.07 in 10.0 mi NNW 4.6 mph - N/A   Overcast
8:56 PM 21.9 °F 10.4 °F 15.1 °F 75% 30.06 in 10.0 mi NW 11.5 mph - N/A   Overcast
9:56 PM 17.1 °F 6.6 °F 12.0 °F 81% 30.09 in 10.0 mi NW 8.1 mph - N/A   Partly Cloudy
10:56 PM 18.0 °F 5.4 °F 12.0 °F 78% 30.11 in 10.0 mi NW 11.5 mph - N/A   Overcast
11:56 PM 18.0 °F 6.1 °F 12.9 °F 81% 30.12 in 10.0 mi NNW 10.4 mph - N/A   Overcast